Location: Hiram
(41.3130°N, 81.1440°W)
Time: 08:34:20
(UTC-04:00)

Daily predictions for brighter satellites

Satellite Brightness Start Highest point End
(mag) Time Altitude Azimuth Time Altitude Azimuth Time Altitude Azimuth
Meteor 2-4 Rocket 4.0 21:09:59 10° S 21:15:42 58° E 21:21:31 10° NNE
Cosmos 2333 Rocket 3.6 21:12:13 10° SW 21:17:36 45° WNW 21:23:03 10° NNE
Okean 2 3.7 21:13:58 10° SSE 21:18:00 50° E 21:22:04 10° NNE
Meteor 1-19 Rocket 4.2 21:12:27 10° S 21:18:03 83° E 21:23:40 10° NNE
BREEZE M DEB (TANK) 2.5 21:15:11 10° WNW 21:19:05 47° N 21:21:02 10° ENE
Cosmos 2297 3.8 21:13:31 10° NNW 21:19:16 90° ENE 21:25:00 10° SSE
FENGYUN 3A 4.1 21:21:56 10° S 21:27:14 65° WSW 21:32:37 10° NNW
Cosmos 1726 Rocket 3.7 21:22:49 10° N 21:27:17 80° W 21:31:41 10° S
H-2A R/B 3.7 21:25:57 10° S 21:29:47 51° W 21:33:40 10° NNW
PSLV R/B 4.2 21:28:58 10° SW 21:32:09 32° SSE 21:35:21 10° E
ISS -1.6 21:30:41 10° SSE 21:32:35 15° SE 21:34:29 10° E
Cosmos 2285 Rocket 4.1 21:27:58 10° NNW 21:34:20 87° ENE 21:40:41 10° SSE
Cosmos 1461 3.3 21:34:21 10° NNW 21:38:35 50° NE 21:42:09 13° SE
CZ-2C R/B 1.6 21:37:31 10° S 21:39:42 41° W 21:41:56 10° NNW
Cosmos 494 Rocket 4.1 21:34:40 10° SSW 21:39:47 82° WNW 21:44:56 10° NNE
SPOT 5 3.1 21:36:22 10° SE 21:40:33 43° ENE 21:44:40 10° N
Cosmos 2058 Rocket 3.3 21:36:37 10° NNW 21:41:00 74° W 21:45:19 10° S
Cosmos 1464 Rocket 4.0 21:38:57 10° N 21:45:07 90° ENE 21:51:17 10° S
Cosmos 1602 Rocket 3.8 21:42:15 10° S 21:46:37 54° E 21:50:59 10° NNE
CZ-4 SHROUD 3.5 21:46:44 14° SSE 21:49:20 53° ENE 21:52:26 10° N
H-2A R/B 4.0 21:49:07 10° E 21:51:23 13° ENE 21:53:41 10° NNE
ALOS 4.0 21:48:30 10° SSW 21:52:37 31° W 21:56:46 10° NNW
GRACE-1 4.3 21:50:20 10° NNE 21:53:07 46° E 21:55:07 16° SSE
GRACE-2 4.2 21:50:46 10° NNE 21:53:34 47° E 21:55:32 17° SSE
Aureole 2 Rocket 2.8 21:49:49 10° SSW 21:53:47 77° WNW 21:57:23 10° NNE
deb Chang Zheng 4 4.0 21:49:30 10° N 21:53:53 67° WNW 21:58:12 10° SSW
Cosmos 1812 Rocket 3.9 21:52:56 10° N 21:57:11 48° E 22:00:28 16° SSE
Cosmos 2278 Rocket 4.4 21:54:44 10° NW 21:58:56 22° W 22:03:07 10° SSW
SPOT 1/Viking Rocket 4.2 21:55:42 15° SE 21:59:33 39° ENE 22:04:19 10° N
Terra 3.8 22:00:41 10° E 22:03:17 15° ENE 22:05:52 10° NNE
Cosmos 2034 Rocket 4.1 21:57:17 10° N 22:03:42 87° W 22:10:02 10° S
Atlas Centaur 2 3.6 22:02:51 10° SW 22:09:34 33° SSE 22:15:35 15° ESE
H-2A R/B 3.2 22:06:22 10° S 22:10:21 41° W 22:14:28 10° NNW
SeaSat 1 2.4 22:07:21 17° SSE 22:11:15 87° WSW 22:16:14 10° NNW
Cosmos 2369 Rocket 3.1 22:07:45 10° N 22:12:56 35° ENE 22:16:29 18° ESE
ARGOS 3.7 22:10:34 19° SE 22:14:08 44° ENE 22:19:16 10° N
DEBRIS 2.9 22:09:50 10° WNW 22:14:31 48° SW 22:15:34 28° SSE
Cosmos 1666 3.9 22:12:40 10° NNW 22:16:22 41° W 22:20:02 10° SSW
CZ-4B R/B 3.5 22:12:50 10° NNE 22:17:53 63° ESE 22:22:52 11° S
PSLV R/B 3.7 22:16:10 18° S 22:18:15 56° W 22:21:20 10° NNW
SL-16 R/B 3.9 22:14:13 10° SW 22:19:23 36° WNW 22:24:35 10° N
Cosmos 1626 Rocket 4.0 22:15:18 10° SSW 22:19:42 65° W 22:24:07 10° N
Cosmos 1939 Rocket 4.1 22:17:51 10° S 22:21:47 41° W 22:25:44 10° NNW
Milstar 3 Cent rocket 4.2 22:23:10 10° SW 22:25:44 12° SSW 22:27:55 10° S
COSMOS 2455 2.8 22:21:00 10° SSW 22:26:58 73° ESE 22:32:59 10° NNE
Meteor 2-12 Rocket 4.4 22:22:01 10° N 22:28:09 81° E 22:32:33 20° SSE
MetOp-B 4.2 22:28:00 18° S 22:32:04 76° WSW 22:37:26 10° NNW
Cosmos 1953 4.5 22:31:55 10° NE 22:33:43 13° ENE 22:34:19 12° E
Lacrosse 5 rocket 4.3 22:31:08 10° WNW 22:33:53 18° NNW 22:36:43 10° NNE
Cosmos 1953 Rocket 4.0 22:35:34 31° SE 22:37:06 44° E 22:41:19 10° NNE
ATLAS 3B R/B 3.1 22:29:56 10° S 22:37:14 48° ESE 22:44:25 10° NE
Cosmos 2346 Rocket 4.4 22:36:44 19° S 22:41:18 70° E 22:47:24 10° NNE
Cosmos 1515 3.9 22:43:53 22° SSW 22:46:16 70° W 22:50:08 10° N
Envisat 4.3 22:42:41 10° SSW 22:47:14 35° W 22:51:53 10° NNW
Cosmos 1066 Rocket 4.2 22:43:48 21° S 22:47:39 75° E 22:53:27 10° NNE
USA 234 3.3 22:45:57 27° SE 22:49:51 77° SW 22:56:27 10° NW
Abrixas rocket 4.2 22:48:48 10° W 22:51:16 19° SW 22:51:25 19° SW
Cosmos 407 Rocket 3.7 22:49:25 31° SSE 22:51:33 50° ESE 22:56:35 10° NNE
Cosmos 1346 Rocket 2.6 22:56:00 49° SSE 22:56:53 70° E 23:00:48 10° NNE
Cosmos-2242 4.1 22:53:46 10° NNE 22:57:40 30° ENE 22:58:21 29° E
DELTA 2 DEB (DPAF) 4.1 22:56:14 40° SSE 22:57:50 83° ENE 23:02:22 10° NNW
Lacrosse 4 Rocket 1.4 22:59:12 49° ESE 22:59:19 49° ESE 23:03:16 10° NE
YAOGAN 6 3.9 23:02:20 25° SW 23:03:51 35° W 23:07:20 10° NNW
USA 81 4.3 22:59:57 10° N 23:05:12 66° W 23:08:02 27° SSW
ISS -2.9 23:05:27 10° WSW 23:08:41 63° NNW 23:11:56 10° NE
BREEZE-M DEB (TANK) 3.6 23:06:20 10° W 23:08:59 32° NNW 23:09:51 22° NNE
PSLV R/B 3.3 23:06:02 10° WSW 23:09:23 75° SW 23:09:23 75° SW
Cosmos 1954 Rocket 4.4 23:09:47 40° SE 23:10:34 42° ESE 23:15:34 10° NNE
Cosmos 1758 Rocket 3.4 23:10:06 47° S 23:11:22 86° E 23:15:46 10° N
CZ-4 R/B 4.5 23:06:44 10° N 23:11:38 58° WNW 23:15:27 17° SSW
USA 238 DEB 4.4 23:10:57 32° SE 23:12:00 34° ESE 23:18:12 10° NE
USA 238 4.4 23:11:06 32° SE 23:12:05 33° ESE 23:18:15 10° NE
Cosmos 1943 3.3 23:07:20 12° SSW 23:12:35 78° WNW 23:18:19 10° NNE
Cosmos 1842 3.6 23:13:33 48° E 23:13:33 48° E 23:17:13 10° NNE
Meteor 1-21 4.2 23:11:19 36° S 23:13:45 73° E 23:19:33 10° NNE
CARTOSAT-1 3.5 23:14:29 56° SE 23:15:19 75° ENE 23:19:39 10° N
Cosmos 1758 4.1 23:15:06 10° N 23:18:58 38° ENE 23:19:02 38° E
Cosmos 1943 Rocket 2.7 23:16:26 10° NNW 23:21:49 48° ENE 23:23:31 36° ESE
Spot 4 3.8 23:22:16 52° SE 23:23:16 69° ENE 23:28:02 10° N
Spot 2 4.3 23:19:22 10° NNE 23:24:09 77° ESE 23:25:25 50° S
Landsat 7 4.0 23:23:17 43° SSW 23:24:40 65° W 23:29:25 10° NNW
H-2A R/B 1.9 23:28:49 50° S 23:30:05 79° WSW 23:35:09 10° NNW
SAR-Lupe-2 3.8 23:30:47 59° W 23:30:47 59° W 23:34:18 10° NNW
Cosmos 1766 3.4 23:30:05 10° NNW 23:34:03 64° W 23:34:21 61° WSW
Terra 2.0 23:39:33 52° SSW 23:40:28 65° WSW 23:45:13 10° NNW
Cosmos 1842 Rocket 4.1 23:37:24 10° N 23:41:34 45° ENE 23:41:34 45° ENE
Cosmos 1570 Rocket 4.5 23:37:19 10° N 23:42:32 49° ENE 23:43:34 43° E
Cosmos 1850 Rocket 4.4 23:46:11 44° E 23:46:11 44° E 23:50:56 10° NNE
Nadezhda 4 Rocket 4.0 23:45:01 49° SSE 23:46:42 70° E 23:53:01 10° NNE
DMSP B5D2-2 4.4 23:46:22 10° N 23:51:36 65° WNW 23:53:28 39° SW
CZ-4C R/B 4.1 23:54:52 15° E 23:54:52 15° E 23:56:35 10° ENE
